Flag for Congo Weather past 2 weeks in Pointe-Noire, Congo

Now
73 °F

More clouds than sun.


Feels Like: 74 °F
Forecast: 70 / 79 °F
Wind: 9 mph from South

Location: Pointe Airport-Noire

Current Time: Sep 3, 2015 at 2:39:30 PM

Latest Report: Sep 3, 2015 at 2:00 PM


Visibility: N/A

Pressure: 29.98 "Hg

Humidity: 78%

Dew point: 66 °F

Location of Pointe-NoireLocation

Historic Weather in Pointe-Noire — Graph

°F

Pointe-Noire temperature yesterday

Maximum temperature yesterday: 79 °F (at 12:00 PM)
Minimum temperature yesterday: 72 °F (at 12:00 AM)
Average temperature yesterday: 74 °F

Past Weeks' High & Low Weather Summary

 TemperatureHumidityPressure
High79 °F (Aug 20, 12:00 PM)100% (Aug 27, 8:00 AM)30.07 "Hg (Aug 27, 8:00 AM)
Low70 °F (Aug 20, 3:00 AM)61% (Aug 20, 2:00 PM)29.86 "Hg (Aug 19, 3:00 PM)
Average73 °F85%29.97 "Hg
* Reported Aug 19 1:00 PM — Sep 3 1:00 PM, Pointe-Noire, Weather by CustomWeather, © 2015

Note: Actual official high and low records may vary slightly from our data, if they occured in-between our weather recording intervals... More about our weather records

Advertising

Pointe-Noire weather history for previous 24 hours

 ConditionsComfort  
Time TempWeatherWind HumidityBarometerVisibility
1:00 PM
Thu, Sep 3
73 °FMore clouds than sun.12 mph78%30.01 "HgN/A
12:00 PM73 °FMore clouds than sun.12 mph83%30.01 "HgN/A
11:00 AM73 °FMore clouds than sun.13 mph83%30.04 "Hg5 mi
10:00 AM75 °FMore clouds than sun.9 mph78%30.04 "Hg5 mi
9:00 AM72 °FDrizzle. More clouds than sun.7 mph88%30.04 "Hg2 mi
8:00 AM72 °FMore clouds than sun.7 mph94%30.04 "Hg4 mi
7:00 AM72 °FMore clouds than sun.3 mph94%30.01 "Hg4 mi
6:00 AM72 °FMostly cloudy.3 mph88%30.01 "Hg4 mi
5:00 AM72 °FMostly cloudy.5 mph94%30.01 "Hg4 mi
4:00 AM72 °FOvercast.2 mph88%29.98 "Hg4 mi
3:00 AM72 °FPassing clouds.5 mph88%29.98 "Hg4 mi
2:00 AM72 °FOvercast.2 mph88%30.01 "Hg4 mi
1:00 AM72 °FOvercast.2 mph88%30.01 "Hg4 mi
12:00 AM72 °FOvercast.2 mph88%30.01 "Hg4 mi
11:00 PM
Wed, Sep 2
72 °FPassing clouds.5 mph88%30.01 "Hg4 mi
10:00 PM72 °FPassing clouds.3 mph88%30.01 "Hg4 mi
9:00 PM72 °FPassing clouds.5 mph88%30.01 "Hg4 mi
8:00 PM72 °FPassing clouds.5 mph88%29.98 "Hg4 mi
7:00 PM72 °FPassing clouds.7 mph88%29.95 "Hg4 mi
6:00 PM75 °FScattered clouds.8 mph74%29.92 "Hg5 mi
5:00 PM75 °FPassing clouds.9 mph74%29.92 "Hg5 mi
4:00 PM75 °FScattered clouds.10 mph74%29.92 "HgN/A
3:00 PM77 °FScattered clouds.8 mph69%29.92 "HgN/A
2:00 PM79 °FScattered clouds.10 mph65%29.95 "HgN/A
Weather by CustomWeather, © 2015

See weather overviewHow to use our weather pages